Regional Weather Roundup
Issued by NWS Wilmington, NC

Home | Current Version | Previous Version | Text Only | Print | Product List | Glossary On
Versions: 1 2 3 4 5 6 7 8 9 10 11 12 13 14 15 16 17 18 19 20 21 22 23 24 25 26 27
000
ASUS42 KILM 232013
RWRILM
RWRILM
REGIONAL HOURLY WEATHER ROUNDUP
NATIONAL WEATHER SERVICE WILMINGTON NC
400 PM EDT SAT SEP 23 2017

NOTE: "FAIR" INDICATES FEW OR NO CLOUDS BELOW 12,000 FEET WITH NO
SIGNIFICANT WEATHER AND/OR OBSTRUCTIONS TO VISIBILITY.

...............WFO WILMINGTON COUNTY WARNING AREA...............

......COASTAL NC AND SC COUNTIES......

CITY           SKY/WX    TMP DP  RH WIND       PRES   REMARKS
WILMINGTON     MOSUNNY   85  69  58 E8        30.00F
N MYRTLE BEACH PTSUNNY   84  68  58 VRB6      30.00F
MYRTLE BEACH   MOSUNNY   85  68  56 SE8       30.01F

......INLAND NC AND SC COUNTIES.......

CITY           SKY/WX    TMP DP  RH WIND       PRES   REMARKS
LUMBERTON      NOT AVBL
ELIZABETHTOWN  NOT AVBL
WHITEVILLE     SUNNY     85  64  47 NE6       30.00F
FLORENCE       SUNNY     88  61  40 NE9       30.01F
DARLINGTON     SUNNY     89  64  43 NE10      30.01F HX  90
KINGSTREE      FAIR      86  64  48 CALM      30.00F
HARTSVILLE     FAIR      88  59  37 E5        30.01F
BENNETTSVILLE  FAIR      90  61  37 E7        30.01S
CONWAY         FAIR      86  64  48 NE5       29.99F HAZE
GEORGETOWN     FAIR      81  70  69 SE7       30.01F
MARION         FAIR      86  61  42 E7        30.01S

....................REST OF NORTH CAROLINA......................

.........EASTERN NC.........

CITY           SKY/WX    TMP DP  RH WIND       PRES   REMARKS
CAPE HATTERAS  MOSUNNY   82  71  69 VRB7      30.02S
JACKSONVILLE   SUNNY     84  60  44 NE7       30.02F
MOREHEAD CITY  MOSUNNY   82  72  71 E8        30.01F
KENANSVILLE    SUNNY     86  59  39 N7        30.03F
NEW BERN       MOSUNNY   86  65  49 E10       30.02F
ELIZABETH CITY SUNNY     83  70  64 NE9       30.03S

.........CENTRAL NC.........

CITY           SKY/WX    TMP DP  RH WIND       PRES   REMARKS
RALEIGH DURHAM MOSUNNY   86  56  35 E6G20     30.05F
ROCKY MOUNT    SUNNY     85  64  49 NE6       30.04F
ROANOKE RAPIDS NOT AVBL
FAYETTEVILLE   SUNNY     87  60  40 E10       30.02F
HOFFMAN        MOSUNNY   87  60  39 NE10G17   30.02F

.........WESTERN NC.........

CITY           SKY/WX    TMP DP  RH WIND       PRES   REMARKS
CHARLOTTE      MOSUNNY   88  62  41 VRB6      30.04F
GREENSBORO     MOSUNNY   85  59  41 NE8       30.06F
HICKORY        NOT AVBL
BOONE          NOT AVBL
ASHEVILLE      NOT AVBL

.....................REST OF SOUTH CAROLINA.....................

.........EASTERN SC.........

CITY           SKY/WX    TMP DP  RH WIND       PRES   REMARKS
CHARLESTON     MOSUNNY   86  67  52 SE8       29.99F
BEAUFORT MCAS  SUNNY     86  72  62 E6        29.99F HX  92
HILTON HEAD    SUNNY     82  72  69 E12       29.99F

.........CENTRAL SC.........

CITY           SKY/WX    TMP DP  RH WIND       PRES   REMARKS
COLUMBIA       MOSUNNY   89  61  38 SE9       29.99F
ORANGEBURG     MOSUNNY   88  63  43 E8        30.00F
SUMTER SHAW    SUNNY     90  59  34 E9G16     29.98F

.........WESTERN SC.........

CITY           SKY/WX    TMP DP  RH WIND       PRES   REMARKS
GREENVILLE     NOT AVBL
ROCK HILL        N/A    N/A N/A N/A MISG      30.04F
ANDERSON       SUNNY     88  60  38 E12       30.03F
CLEMSON        NOT AVBL
GREENWOOD      MOSUNNY   86  62  44 NE6       30.03F


...................COASTAL AND OFFSHORE REPORTS..................

................LOCAL PIERS AND NC RESERVE................


STATION/POSITION TIME  SKY/WX   TEMP    WIND        PRES    VSBY
                                AIR SEA DIR/SP/G
                 (UTC)          (F)     (DEG/KT/KT) (MB)    (MI)
JOHNY MRCER PIER 1936            79 82  100/  9/ 10 1015.4F
NC RESRV MASNBRO 1845            82     100/  3     1017.0
OCEAN CREST PIER NOT AVBL
SPRINGMAID  PIER 1948                               1015.4F


................COASTAL AND OFFSHORE BUOYS................


STATION/POSITION TIME  SKY/WX   TEMP    WIND        PRES    VSBY
                                AIR SEA DIR/SP/G
                 (UTC)          (F)     (DEG/KT/KT) (MB)    (MI)
DIMNDSHOAL 41025 1950            76 77   20/ 10/ 12 1016.2F
WVE H/P(F/S)=  7/13 SWL H/P/D(F/S/D)=  7/160/13

CAPE LOOKOUT     2000            77      70/ 11/ 11 1016.1F
ONSLOW BAY 41036 NOT AVBL
ONSLOW BAY 41064 1908            80      50/  8/ 10 1016.3F
ONSLOW BAY 41159 NOT AVBL
MASNBO INL 41110 1959               80                N/A
WVE H/P(F/S)=  4/12 SWL H/P/D(F/S/D)=  3/130/12

WILM HARBR 41108 2000               81                N/A
WVE H/P(F/S)=  4/13 SWL H/P/D(F/S/D)=  3/160/13

27SE WRITB 41037 1908            79 80   70/ 10/ 14 1016.4F
FRYING PAN 41013 2000            80 83   40/ 10/ 12 1015.7
SUNST NRSH 41024 1908            80 82  160/  8/ 10 1016.0F
CAPRS NRSH 41029 1908            78 81   70/ 12/ 16 1016.1F
EDISTO     41004 1950            80 82   40/ 16/ 19 1014.9F
WVE H/P(F/S)=  7/12 SWL H/P/D(F/S/D)=  5/140/12



..........OFFSHORE BUOYS BEYOND 100 NM OFFSHORE...........
.....IN A TRIANGLE---HAT TO BERMUDA TO BAHAMAS TO HAT.....


STATION/POSITION TIME  SKY/WX   TEMP    WIND        PRES    VSBY
                                AIR SEA DIR/SP/G
                 (UTC)          (F)     (DEG/KT/KT) (MB)    (MI)
150E HAT   41001 NOT AVBL
W BERMUDA  41048 2000            81 81  100/ 12/ 14 1014.6
ATLANTIC S 41049 1950            82 83  130/ 10/ 12 1016.5F
WVE H/P(F/S)=  7/11 SWL H/P/D(F/S/D)=  7/210/11

E BAHAMAS  41046 2000            83 84  160/ 21/ 29 1009.4
NE BAHAMAS 41047 1950            81 83  100/ 35/ 47  998.9F
WVE H/P(F/S)= 27/13 SWL H/P/D(F/S/D)= 21/170/13

120E CANVRL41010 1950                    40/ 16/ 21 1012.7F
WVE H/P(F/S)= 14/15 SWL H/P/D(F/S/D)= 13/15


END




USA.gov is the U.S. government's official web portal to all federal, state and local government web resources and services.